Weather History for KAJG - September, 2012

Change the Weather History Date:

Friday, September 28, 2012

  Actual Average (KLWV) Record (KLWV)
Temperature  
Mean Temperature 64 °F 64 °F  
Max Temperature 75 °F 77 °F 93 °F (1999)
Min Temperature 51 °F 52 °F 38 °F (1991)
Degree Days  
Heating Degree Days 1 4  
Month to date heating degree days 29  
Since 1 July heating degree days 30  
Cooling Degree Days 0 3  
Month to date cooling degree days 165  
Year to date cooling degree days 1348  
Growing Degree Days 14 (Base 50)    
Moisture  
Dew Point 53 °F    
Average Humidity 71    
Maximum Humidity 100    
Minimum Humidity 36    
Precipitation  
Precipitation 0.00 in 0.12 in 0.41 in (2005)
Month to date precipitation 2.92  
Year to date precipitation 32.27  
Sea Level Pressure  
Sea Level Pressure 30.10 in    
Wind  
Wind Speed 4 mph (NNW)    
Max Wind Speed 10 mph    
Max Gust Speed 16 mph    
Visibility 10 miles    
Events Rain    
T = Trace of Precipitation, MM = Missing Value Source: NWS Daily Summary

Daily Weather History Graph

Daily Weather History Graph

Search for Another Location

Airport or City:

Trip Planner

Search our weather history database for the weather conditions in past years. The results will help you decide how hot, cold, wet, or windy it might be!

Date:

Astronomy

Sep. 28, 2012 Rise Set
Actual Time 6:44 AM CDT 6:37 PM CDT
Civil Twilight 6:17 AM CDT 7:04 PM CDT
Nautical Twilight 5:47 AM CDT 7:34 PM CDT
Astronomical Twilight 5:16 AM CDT 8:05 PM CDT
Moon 5:39 PM CDT (9/28) 5:15 AM CDT (9/28)
Length of Visible Light 12h 46m
Length of Day
11h 53m
Waxing Gibbous, 98% of the Moon is Illuminated
Sep 28
Waxing Gibbous
Sep 29
Full
Oct 8
Last Quarter
Oct 15
New
Oct 21
First Quarter

Hourly Weather History & Observations

Time (CDT) Temp. Dew Point Humidity Pressure Visibility Wind Dir Wind Speed Gust Speed Precip Events Conditions
12:15 AM 64.4 °F 62.6 °F 94% 30.11 in 1.5 mi WNW 3.5 mph - N/A   Mist
12:35 AM 64.4 °F 62.6 °F 94% 30.10 in 2.5 mi Calm Calm - N/A   Mostly Cloudy
12:55 AM 64.4 °F 64.4 °F 100% 30.10 in 4.0 mi Calm Calm - N/A   Mostly Cloudy
1:15 AM 64.4 °F 64.4 °F 100% 30.10 in 5.0 mi NW 3.5 mph - N/A   Scattered Clouds
1:35 AM 64.4 °F 62.6 °F 94% 30.10 in 7.0 mi NNW 3.5 mph - N/A   Mostly Cloudy
1:55 AM 64.4 °F 62.6 °F 94% 30.10 in 10.0 mi NNW 3.5 mph - N/A   Overcast
2:15 AM 64.4 °F 60.8 °F 88% 30.10 in 10.0 mi North 3.5 mph - N/A   Mostly Cloudy
2:35 AM 64.4 °F 59.0 °F 83% 30.09 in 10.0 mi North 4.6 mph - N/A   Overcast
2:55 AM 62.6 °F 57.2 °F 82% 30.09 in 10.0 mi Calm Calm - N/A   Overcast
3:15 AM 62.6 °F 55.4 °F 77% 30.09 in 10.0 mi North 3.5 mph - N/A   Overcast
3:35 AM 62.6 °F 55.4 °F 77% 30.09 in 10.0 mi NNW 4.6 mph - N/A   Overcast
3:55 AM 62.6 °F 55.4 °F 77% 30.09 in 10.0 mi North 5.8 mph - N/A   Overcast
4:15 AM 60.8 °F 55.4 °F 82% 30.09 in 10.0 mi North 5.8 mph - N/A   Overcast
4:35 AM 60.8 °F 53.6 °F 77% 30.09 in 10.0 mi North 3.5 mph - N/A   Overcast
4:55 AM 60.8 °F 53.6 °F 77% 30.09 in 10.0 mi North 4.6 mph - N/A   Overcast
5:15 AM 60.8 °F 53.6 °F 77% 30.09 in 10.0 mi NNW 4.6 mph - N/A   Light Drizzle
5:35 AM 60.8 °F 53.6 °F 77% 30.10 in 10.0 mi NNW 4.6 mph - N/A   Light Drizzle
5:55 AM 59.0 °F 53.6 °F 82% 30.10 in 10.0 mi North 6.9 mph - N/A Rain Light Rain
6:15 AM 59.0 °F 53.6 °F 82% 30.11 in 10.0 mi North 5.8 mph - N/A   Light Drizzle
6:35 AM 59.0 °F 53.6 °F 82% 30.11 in 10.0 mi Calm Calm - N/A   Mostly Cloudy
6:55 AM 59.0 °F 53.6 °F 82% 30.11 in 10.0 mi Calm Calm - N/A   Scattered Clouds
7:15 AM 59.0 °F 53.6 °F 82% 30.12 in 10.0 mi NNW 3.5 mph - N/A   Mostly Cloudy
7:35 AM 59.0 °F 53.6 °F 82% 30.13 in 10.0 mi Calm Calm - N/A   Overcast
7:55 AM 59.0 °F 53.6 °F 82% 30.12 in 10.0 mi North 3.5 mph - N/A   Overcast
8:15 AM 59.0 °F 53.6 °F 82% 30.13 in 10.0 mi Calm Calm - N/A   Overcast
8:35 AM 60.8 °F 55.4 °F 82% 30.14 in 10.0 mi North 3.5 mph - N/A   Overcast
8:55 AM 60.8 °F 55.4 °F 82% 30.13 in 10.0 mi North 5.8 mph - N/A   Overcast
9:15 AM 62.6 °F 53.6 °F 72% 30.13 in 10.0 mi North 4.6 mph - N/A   Mostly Cloudy
9:35 AM 62.6 °F 53.6 °F 72% 30.14 in 10.0 mi North 3.5 mph - N/A   Scattered Clouds
9:55 AM 64.4 °F 53.6 °F 68% 30.14 in 10.0 mi North 5.8 mph - N/A   Clear
10:15 AM 66.2 °F 53.6 °F 64% 30.14 in 10.0 mi NNW 6.9 mph - N/A   Clear
10:35 AM 64.4 °F 51.8 °F 64% 30.14 in 10.0 mi North 9.2 mph - N/A   Scattered Clouds
10:55 AM 64.4 °F 51.8 °F 64% 30.15 in 10.0 mi North 8.1 mph - N/A   Clear
11:15 AM 66.2 °F 51.8 °F 60% 30.14 in 10.0 mi North 6.9 mph - N/A   Clear
11:35 AM 66.2 °F 51.8 °F 60% 30.14 in 10.0 mi WNW 5.8 mph - N/A   Clear
11:55 AM 68.0 °F 50.0 °F 52% 30.14 in 10.0 mi Calm Calm - N/A   Clear
12:15 PM 69.8 °F 50.0 °F 49% 30.13 in 10.0 mi NNW 5.8 mph - N/A   Clear
12:35 PM 71.6 °F 50.0 °F 46% 30.13 in 10.0 mi NNW 8.1 mph - N/A   Clear
12:55 PM 71.6 °F 46.4 °F 41% 30.12 in 10.0 mi NNW 9.2 mph - N/A   Clear
1:15 PM 71.6 °F 46.4 °F 41% 30.11 in 10.0 mi WNW 9.2 mph - N/A   Clear
1:35 PM 73.4 °F 50.0 °F 44% 30.10 in 10.0 mi NW 5.8 mph - N/A   Clear
1:55 PM 73.4 °F 50.0 °F 44% 30.10 in 10.0 mi NNW 5.8 mph - N/A   Clear
2:15 PM 73.4 °F 50.0 °F 44% 30.09 in 10.0 mi WNW 10.4 mph - N/A   Clear
2:35 PM 75.2 °F 46.4 °F 36% 30.09 in 10.0 mi WNW 8.1 mph 16.1 mph N/A   Clear
2:55 PM 73.4 °F 48.2 °F 41% 30.08 in 10.0 mi NW 6.9 mph - N/A   Clear
3:35 PM 73.4 °F 48.2 °F 41% 30.08 in 10.0 mi NNW 10.4 mph - N/A   Clear
3:55 PM 71.6 °F 44.6 °F 38% 30.07 in 10.0 mi NW 9.2 mph - N/A   Clear
4:15 PM 73.4 °F 44.6 °F 36% 30.07 in 10.0 mi WNW 9.2 mph - N/A   Clear
4:35 PM 71.6 °F 46.4 °F 41% 30.07 in 10.0 mi NNW 5.8 mph - N/A   Clear
4:55 PM 71.6 °F 44.6 °F 38% 30.07 in 10.0 mi NNW 6.9 mph - N/A   Clear
5:15 PM 71.6 °F 46.4 °F 41% 30.06 in 10.0 mi NNW 6.9 mph - N/A   Clear
5:35 PM 69.8 °F 46.4 °F 43% 30.06 in 10.0 mi NNW 6.9 mph - N/A   Clear
5:55 PM 69.8 °F 48.2 °F 46% 30.07 in 10.0 mi NW 4.6 mph - N/A   Clear
6:15 PM 68.0 °F 48.2 °F 49% 30.07 in 10.0 mi NW 5.8 mph - N/A   Clear
6:35 PM 64.4 °F 50.0 °F 59% 30.07 in 10.0 mi NW 4.6 mph - N/A   Clear
6:55 PM 62.6 °F 51.8 °F 68% 30.06 in 10.0 mi NNW 4.6 mph - N/A   Clear
7:15 PM 60.8 °F 53.6 °F 77% 30.06 in 10.0 mi NNW 3.5 mph - N/A   Clear
7:35 PM 60.8 °F 53.6 °F 77% 30.06 in 10.0 mi NNW 3.5 mph - N/A   Clear
7:55 PM 59.0 °F 53.6 °F 82% 30.06 in 10.0 mi WNW 4.6 mph - N/A   Clear
8:15 PM 59.0 °F 53.6 °F 82% 30.06 in 10.0 mi West 3.5 mph - N/A   Clear
8:35 PM 59.0 °F 53.6 °F 82% 30.07 in 10.0 mi West 4.6 mph - N/A   Clear
8:55 PM 59.0 °F 53.6 °F 82% 30.07 in 10.0 mi West 3.5 mph - N/A   Clear
9:15 PM 59.0 °F 53.6 °F 82% 30.07 in 10.0 mi West 3.5 mph - N/A   Clear
9:35 PM 57.2 °F 53.6 °F 88% 30.08 in 10.0 mi NW 4.6 mph - N/A   Clear
9:55 PM 55.4 °F 51.8 °F 88% 30.09 in 10.0 mi NW 3.5 mph - N/A   Clear
10:15 PM 55.4 °F 51.8 °F 88% 30.09 in 10.0 mi WNW 3.5 mph - N/A   Clear
10:35 PM 55.4 °F 53.6 °F 94% 30.09 in 10.0 mi Calm Calm - N/A   Clear
10:55 PM 55.4 °F 51.8 °F 88% 30.09 in 10.0 mi Calm Calm - N/A   Clear
11:15 PM 53.6 °F 51.8 °F 94% 30.09 in 10.0 mi Calm Calm - N/A   Clear
11:35 PM 53.6 °F 50.0 °F 88% 30.08 in 10.0 mi NNW 3.5 mph - N/A   Clear
11:55 PM 51.8 °F 50.0 °F 94% 30.09 in 10.0 mi West 3.5 mph - N/A   Clear